Location: Unspecified
(0.0000°N, 0.0000°E)
Time: 14:45:13
(UTC+00:00)

COSMOS 2491 DEB - Visible Passes

Search period start: 15 June 2025 00:00
Search period end: 25 June 2025 00:00
Orbit: 1216 x 1572 km, 82.4° (Epoch: 30 May)

Date Brightness Start Highest point End Pass type
(mag) Time Alt. Az. Time Alt. Az. Time Alt. Az.
15 Jun ? 04:23:41 10° SE 04:28:25 17° E 04:33:16 10° NE visible
15 Jun ? 18:35:40 10° NNW 18:43:05 34° W 18:50:06 10° SSW visible
16 Jun ? 04:59:09 10° SSE 05:06:37 42° E 05:14:36 10° NNE visible
16 Jun ? 19:18:14 10° WNW 19:21:18 12° W 19:24:19 10° WSW visible
18 Jun ? 04:22:43 10° SE 04:29:13 26° E 04:36:03 10° NE visible
18 Jun ? 18:37:51 10° NW 18:43:53 22° W 18:49:39 10° SW visible
19 Jun ? 04:59:27 10° S 05:07:27 63° E 05:16:04 10° NNE visible
20 Jun ? 03:47:18 10° SE 03:51:47 16° E 03:56:24 10° ENE visible
21 Jun ? 04:22:28 10° SSE 04:30:00 40° E 04:37:59 10° NNE visible
21 Jun ? 18:41:05 10° WNW 18:44:37 13° W 18:48:04 10° WSW visible
22 Jun ? 05:00:01 10° S 05:08:17 89° E 05:17:10 10° N visible
23 Jun ? 03:46:06 10° SE 03:52:33 25° E 03:59:17 10° NE visible
24 Jun ? 04:22:38 10° S 04:30:46 59° E 04:39:27 10° NNE visible
